Presque Isle, ME

1:03 PM EST on February 24, 2017 (GMT -0500)
Northern Maine Regional At Presque Isle

Weather History for KPQI - November, 2012

Change the Weather History Date:

Wednesday, November 14, 2012

  Actual Average Record
Temperature  
Mean Temperature 29 °F -  
Max Temperature 37 °F 37 °F 60 °F (1951)
Min Temperature 21 °F 24 °F 3 °F (1934)
Degree Days  
Heating Degree Days 36    
Moisture  
Dew Point 21 °F    
Average Humidity 70    
Maximum Humidity 86    
Minimum Humidity 52    
Precipitation  
Precipitation 0.00 in - - ()
Sea Level Pressure  
Sea Level Pressure 30.46 in    
Wind  
Wind Speed 4 mph (NNW)    
Max Wind Speed 13 mph    
Max Gust Speed 16 mph    
Visibility 10 miles    
Events      
Averages and records for this station are not official NWS values.
T = Trace of Precipitation, MM = Missing Value Source: NWS Daily Summary

Daily Weather History Graph

Daily Weather History Graph

Search for Another Location

Airport or City:

Trip Planner

Search our weather history database for the weather conditions in past years. The results will help you decide how hot, cold, wet, or windy it might be!

Date:

Astronomy

Nov. 14, 2012 Rise Set
Actual Time 6:33 AM EST 3:59 PM EST
Civil Twilight 6:00 AM EST 4:31 PM EST
Nautical Twilight 5:24 AM EST 5:08 PM EST
Astronomical Twilight 4:48 AM EST 5:44 PM EST
Moon 7:22 AM EST (11/14) 4:40 PM EST (11/14)
Length of Visible Light 10h 30m
Length of Day
9h 25m
New Moon, 1% of the Moon is Illuminated
Nov 14
New Moon
Nov 20
First Quarter
Nov 28
Full
Dec 6
Last Quarter
Dec 13
New

Hourly Weather History & Observations

Time (EST) Temp. Windchill Dew Point Humidity Pressure Visibility Wind Dir Wind Speed Gust Speed Precip Events Conditions
12:15 AM 28.4 °F - 24.8 °F 86% - 10.0 mi Calm Calm - N/A   Clear
12:35 AM 30.2 °F 24.3 °F 24.8 °F 80% 30.34 in 10.0 mi WNW 5.8 mph - N/A   Clear
12:55 AM 28.4 °F - 23.0 °F 80% 30.35 in 10.0 mi Calm Calm - N/A   Clear
1:15 AM 26.6 °F - 23.0 °F 86% 30.36 in 10.0 mi Calm Calm - N/A   Clear
1:35 AM 28.4 °F 24.6 °F 23.0 °F 80% 30.36 in 10.0 mi West 3.5 mph - N/A   Clear
1:55 AM 26.6 °F - 21.2 °F 80% - 10.0 mi Calm Calm - N/A   Clear
2:15 AM 26.6 °F 22.6 °F 21.2 °F 80% - 10.0 mi WNW 3.5 mph - N/A   Clear
2:35 AM 26.6 °F - 21.2 °F 80% 30.38 in 10.0 mi Calm Calm - N/A   Clear
2:55 AM 28.4 °F 22.2 °F 23.0 °F 80% 30.38 in 10.0 mi NW 5.8 mph - N/A   Clear
3:15 AM 26.6 °F - 19.4 °F 74% 30.38 in 10.0 mi Calm Calm - N/A   Clear
3:35 AM 26.6 °F - 19.4 °F 74% 30.38 in 10.0 mi Calm Calm - N/A   Clear
3:55 AM 24.8 °F - 21.2 °F 86% 30.38 in 10.0 mi Calm Calm - N/A   Clear
4:15 AM 24.8 °F - 19.4 °F 80% 30.38 in 10.0 mi Calm Calm - N/A   Clear
4:35 AM 24.8 °F - 19.4 °F 80% 30.39 in 10.0 mi Calm Calm - N/A   Clear
4:55 AM 24.8 °F - 19.4 °F 80% 30.40 in 10.0 mi Calm Calm - N/A   Clear
5:15 AM 24.8 °F - 19.4 °F 80% 30.41 in 10.0 mi Calm Calm - N/A   Clear
5:35 AM 23.0 °F - 19.4 °F 86% 30.42 in 10.0 mi Calm Calm - N/A   Clear
5:55 AM 24.8 °F - 19.4 °F 80% 30.42 in 10.0 mi Calm Calm - N/A   Clear
6:15 AM 24.8 °F 20.5 °F 19.4 °F 80% 30.43 in 10.0 mi WNW 3.5 mph - N/A   Clear
6:35 AM 21.2 °F - 17.6 °F 86% 30.44 in 10.0 mi Calm Calm - N/A   Clear
6:55 AM 24.8 °F 20.5 °F 19.4 °F 80% 30.45 in - NNW 3.5 mph - N/A   Clear
7:15 AM 23.0 °F 17.0 °F 17.6 °F 80% 30.46 in 10.0 mi East 4.6 mph - N/A   Clear
7:35 AM 26.6 °F - 19.4 °F 74% 30.47 in 10.0 mi Calm Calm - N/A   Clear
7:55 AM 28.4 °F - 23.0 °F 80% 30.48 in 10.0 mi Calm Calm - N/A   Clear
8:15 AM 28.4 °F 21.2 °F 23.0 °F 80% 30.48 in - NNW 6.9 mph - N/A   Clear
8:35 AM 30.2 °F 22.6 °F 23.0 °F 75% 30.48 in 10.0 mi North 8.1 mph - N/A   Clear
8:55 AM 32.0 °F 23.6 °F 23.0 °F 69% 30.49 in 10.0 mi North 10.4 mph - N/A   Clear
9:15 AM 33.8 °F 26.4 °F 23.0 °F 65% 30.49 in 10.0 mi North 9.2 mph - N/A   Clear
9:35 AM 33.8 °F 25.3 °F 24.8 °F 70% 30.49 in 10.0 mi North 11.5 mph - N/A   Clear
9:55 AM 33.8 °F 25.8 °F 24.8 °F 70% 30.49 in 10.0 mi North 10.4 mph - N/A   Clear
10:15 AM 35.6 °F 28.0 °F 23.0 °F 60% 30.49 in 10.0 mi North 10.4 mph - N/A   Clear
10:35 AM 35.6 °F 28.0 °F 21.2 °F 56% 30.49 in 10.0 mi North 10.4 mph - N/A   Scattered Clouds
10:55 AM 35.6 °F 27.1 °F 21.2 °F 56% 30.48 in 10.0 mi NNW 12.7 mph - N/A   Mostly Cloudy
11:15 AM 35.6 °F 28.0 °F 21.2 °F 56% 30.48 in 10.0 mi North 10.4 mph - N/A   Mostly Cloudy
11:35 AM 35.6 °F 28.0 °F 21.2 °F 56% 30.47 in 10.0 mi NNW 10.4 mph - N/A   Scattered Clouds
11:55 AM 37.4 °F 30.8 °F 21.2 °F 52% 30.47 in 10.0 mi NNW 9.2 mph - N/A   Scattered Clouds
12:15 PM 37.4 °F 29.8 °F 23.0 °F 56% 30.47 in 10.0 mi NNW 11.5 mph - N/A   Mostly Cloudy
12:35 PM 37.4 °F 30.3 °F 21.2 °F 52% 30.47 in 10.0 mi NNW 10.4 mph - N/A   Mostly Cloudy
12:55 PM 35.6 °F 29.2 °F 21.2 °F 56% 30.47 in 10.0 mi NW 8.1 mph - N/A   Mostly Cloudy
1:15 PM 35.6 °F 28.0 °F 21.2 °F 56% 30.47 in 10.0 mi NNW 10.4 mph - N/A   Mostly Cloudy
1:35 PM 35.6 °F 29.2 °F 21.2 °F 56% 30.47 in 10.0 mi North 8.1 mph - N/A   Scattered Clouds
1:55 PM 37.4 °F 32.1 °F 21.2 °F 52% 30.47 in 10.0 mi WNW 6.9 mph - N/A   Scattered Clouds
2:15 PM 37.4 °F 30.8 °F 21.2 °F 52% 30.47 in 10.0 mi North 9.2 mph - N/A   Mostly Cloudy
2:35 PM 35.6 °F 28.0 °F 21.2 °F 56% 30.47 in 10.0 mi North 10.4 mph - N/A   Clear
2:55 PM 35.6 °F 28.6 °F 21.2 °F 56% 30.47 in 10.0 mi NNW 9.2 mph - N/A   Clear
3:15 PM 35.6 °F 29.9 °F 21.2 °F 56% 30.47 in 10.0 mi North 6.9 mph - N/A   Clear
3:55 PM 33.8 °F 27.7 °F 21.2 °F 60% 30.48 in 10.0 mi NNW 6.9 mph - N/A   Mostly Cloudy
4:15 PM 33.8 °F 25.3 °F 21.2 °F 60% 30.48 in 10.0 mi North 11.5 mph 16.1 mph N/A   Overcast
4:35 PM 33.8 °F 27.0 °F 21.2 °F 60% 30.48 in 10.0 mi North 8.1 mph - N/A   Overcast
4:55 PM 33.8 °F 27.7 °F 21.2 °F 60% 30.49 in 10.0 mi North 6.9 mph - N/A   Overcast
5:15 PM 30.2 °F 21.9 °F 19.4 °F 64% 30.49 in 10.0 mi North 9.2 mph - N/A   Overcast
5:35 PM 30.2 °F 21.9 °F 19.4 °F 64% 30.49 in 10.0 mi NNW 9.2 mph - N/A   Mostly Cloudy
5:55 PM 28.4 °F 21.2 °F 19.4 °F 69% 30.49 in 10.0 mi North 6.9 mph - N/A   Partly Cloudy
6:15 PM 28.4 °F 20.4 °F 19.4 °F 69% 30.49 in 10.0 mi NNW 8.1 mph - N/A   Scattered Clouds
6:35 PM 28.4 °F 20.4 °F 19.4 °F 69% 30.49 in 10.0 mi NNW 8.1 mph - N/A   Partly Cloudy
6:55 PM 30.2 °F 22.6 °F 19.4 °F 64% 30.49 in 10.0 mi NNW 8.1 mph - N/A   Clear
7:15 PM 30.2 °F 23.4 °F 19.4 °F 64% 30.49 in 10.0 mi NW 6.9 mph - N/A   Clear
7:35 PM 28.4 °F 22.2 °F 19.4 °F 69% 30.49 in 10.0 mi NNW 5.8 mph - N/A   Clear
7:55 PM 28.4 °F - 19.4 °F 69% 30.49 in 10.0 mi Calm Calm - N/A   Clear
8:15 PM 28.4 °F 24.6 °F 19.4 °F 69% 30.49 in 10.0 mi North 3.5 mph - N/A   Clear
8:35 PM 28.4 °F - 19.4 °F 69% 30.49 in 10.0 mi Calm Calm - N/A   Clear
8:55 PM 26.6 °F - 19.4 °F 74% 30.49 in 10.0 mi Calm Calm - N/A   Clear
9:15 PM 26.6 °F - 19.4 °F 74% 30.49 in 10.0 mi Calm Calm - N/A   Clear
9:35 PM 26.6 °F - 19.4 °F 74% 30.49 in 10.0 mi Calm Calm - N/A   Clear
9:55 PM 26.6 °F - 17.6 °F 69% 30.48 in 10.0 mi Calm Calm - N/A   Clear
10:15 PM 24.8 °F - 17.6 °F 74% 30.48 in 10.0 mi Calm Calm - N/A   Clear
10:35 PM 24.8 °F - 17.6 °F 74% 30.48 in 10.0 mi Calm Calm - N/A   Clear
10:55 PM 24.8 °F - 17.6 °F 74% 30.48 in 10.0 mi Calm Calm - N/A   Clear
11:15 PM 23.0 °F - 17.6 °F 80% 30.48 in 10.0 mi Calm Calm - N/A   Clear
11:35 PM 23.0 °F - 17.6 °F 80% 30.48 in 10.0 mi Calm Calm - N/A   Clear
11:55 PM 23.0 °F - 17.6 °F 80% 30.48 in 10.0 mi Calm Calm - N/A   Clear